Disclaimer

Please do not use the information listed here in-flight or in-navigation, as they are not provided to us by the airports but are provided by volunteers, so they might be outdated.

Search


Regions


Airport information page

Radio informations:
PACIFIC RDO - 126.7 MHz
VANCOUVER CNTR - 133.4 MHz
AWOS - 122.55 MHz
TERRACE RDO - 122.3 MHz

Airport informations:
Latitude: 53° 15' 15.60" N
Longitude: 131° 48' 49.80" W
Elevation: 21 feet - 6 meters
Operating hours: N/A
Operating agency: Civil government, landing fees and diplomatic clearance may be required
Timezone: N/A
Fuel: Jet A1, without icing nhibitor.

100/130 MIL Spec, low lead, aviation gasoline (BLUE)

Runway information:
12/30 - 5120 x 150 feet< - >1561 x 46 meters

Recent METARs:
CYZP 200547Z AUTO 17008KT 9SM FEW046 OVC130 05/03 A2976 RMK PRESRR SLP078
CYZP 200629Z AUTO 18009KT 9SM SCT040 BKN050 OVC130 05/04 A2978 RMK SLP087
CYZP 200629Z AUTO 18009KT 9SM SCT040 BKN050 OVC130 05/04 A2978 RMK SLP087

Airport on the map: